IRNSS-1B

Last updated on Wed Sep 17 2025 00:02:48 GMT+0000 (Coordinated Universal Time)

1 39635U 14017A 25259.52341175 .00000104 00000+0 00000+0 0 9993 2 39635 28.9866 245.0783 0019698 193.1740 160.9144 1.00271731 42041
UTC large
Height (km)
Speed (km/s)
/
Latitude / Longitude
Inclination (degrees)
Orbital Period (minutes)
Azimuth
Elevation
Range (km)
Doppler Factor

Next 0 passes for location: London (51.5072 / 0.1276)

Sorry there are no passes over London.